Time,TemperatureF,DewpointF,PressureIn,WindDirection,WindDirectionDegrees,WindSpeedMPH,WindSpeedGustMPH,Humidity,HourlyPrecipIn,Conditions,Clouds,dailyrainin,SoftwareType,DateUTC
2013-05-24 00:02:00,48.0,29.8,30.92,SE,135,4.0,4.0,49,0.00,,,0.00,meteohub,2013-05-24 06:02:00,
2013-05-24 00:07:00,48.0,29.8,30.93,SE,135,4.0,4.0,49,0.00,,,0.00,meteohub,2013-05-24 06:07:00,
2013-05-24 00:12:00,48.0,30.7,30.92,SE,135,4.0,4.0,51,0.00,,,0.00,meteohub,2013-05-24 06:12:00,
2013-05-24 00:17:00,48.0,31.3,30.93,SE,135,5.0,5.0,52,0.00,,,0.00,meteohub,2013-05-24 06:17:00,
2013-05-24 00:22:00,48.2,30.9,30.93,South,180,4.0,5.0,51,0.00,,,0.00,meteohub,2013-05-24 06:22:00,
2013-05-24 00:27:00,48.2,30.9,30.93,SE,135,4.0,5.0,51,0.00,,,0.00,meteohub,2013-05-24 06:27:00,
2013-05-24 00:32:00,48.0,31.6,30.92,ESE,113,5.0,5.0,53,0.00,,,0.00,meteohub,2013-05-24 06:32:00,
2013-05-24 00:37:00,47.8,31.1,30.92,SSE,158,4.0,6.0,52,0.00,,,0.00,meteohub,2013-05-24 06:37:00,
2013-05-24 00:42:00,47.8,31.5,30.92,SE,135,5.0,6.0,53,0.00,,,0.00,meteohub,2013-05-24 06:42:00,
2013-05-24 00:47:00,47.5,30.7,30.92,SW,225,2.0,6.0,52,0.00,,,0.00,meteohub,2013-05-24 06:47:00,
2013-05-24 00:52:00,47.1,29.8,30.93,South,180,3.0,5.0,51,0.00,,,0.00,meteohub,2013-05-24 06:52:00,
2013-05-24 00:57:00,46.9,29.3,30.93,South,180,2.0,5.0,50,0.00,,,0.00,meteohub,2013-05-24 06:57:00,
2013-05-24 01:02:00,46.6,28.9,30.93,South,180,4.0,5.0,50,0.00,,,0.00,meteohub,2013-05-24 07:02:00,
2013-05-24 01:07:00,46.2,28.6,30.92,South,180,4.0,5.0,50,0.00,,,0.00,meteohub,2013-05-24 07:07:00,
2013-05-24 01:12:00,45.9,28.2,30.92,South,180,3.0,4.0,50,0.00,,,0.00,meteohub,2013-05-24 07:12:00,
2013-05-24 01:17:00,45.7,28.0,30.92,North,0,0.0,4.0,50,0.00,,,0.00,meteohub,2013-05-24 07:17:00,
2013-05-24 01:22:00,45.0,27.5,30.92,SW,225,2.0,4.0,50,0.00,,,0.00,meteohub,2013-05-24 07:22:00,
2013-05-24 01:27:00,44.1,27.5,30.92,SE,135,2.0,3.0,52,0.00,,,0.00,meteohub,2013-05-24 07:27:00,
2013-05-24 01:32:00,43.7,28.2,30.92,East,90,3.0,3.0,54,0.00,,,0.00,meteohub,2013-05-24 07:32:00,
2013-05-24 01:37:00,43.7,28.2,30.92,SE,135,2.0,5.0,54,0.00,,,0.00,meteohub,2013-05-24 07:37:00,
2013-05-24 01:42:00,43.3,28.2,30.92,South,180,4.0,5.0,55,0.00,,,0.00,meteohub,2013-05-24 07:42:00,
2013-05-24 01:47:00,43.2,27.7,30.92,South,180,3.0,7.0,54,0.00,,,0.00,meteohub,2013-05-24 07:47:00,
2013-05-24 01:52:00,43.5,28.0,30.93,South,180,2.0,7.0,54,0.00,,,0.00,meteohub,2013-05-24 07:52:00,
2013-05-24 01:57:00,43.3,27.3,30.93,NE,45,3.0,7.0,53,0.00,,,0.00,meteohub,2013-05-24 07:57:00,
2013-05-24 02:02:00,43.0,27.5,30.93,NE,45,2.0,6.0,54,0.00,,,0.00,meteohub,2013-05-24 08:02:00,
2013-05-24 02:07:00,43.0,27.5,30.93,NE,45,2.0,3.0,54,0.00,,,0.00,meteohub,2013-05-24 08:07:00,
2013-05-24 02:12:00,41.2,27.5,30.93,SE,135,2.0,4.0,58,0.00,,,0.00,meteohub,2013-05-24 08:12:00,
2013-05-24 02:17:00,40.8,28.0,30.93,SE,135,2.0,4.0,60,0.00,,,0.00,meteohub,2013-05-24 08:17:00,
2013-05-24 02:22:00,40.6,28.2,30.93,SE,135,4.0,4.0,61,0.00,,,0.00,meteohub,2013-05-24 08:22:00,
2013-05-24 02:27:00,40.8,28.4,30.93,South,180,4.0,4.0,61,0.00,,,0.00,meteohub,2013-05-24 08:27:00,
2013-05-24 02:32:00,41.0,28.2,30.93,South,180,2.0,4.0,60,0.00,,,0.00,meteohub,2013-05-24 08:32:00,
2013-05-24 02:37:00,41.0,28.2,30.93,East,90,3.0,4.0,60,0.00,,,0.00,meteohub,2013-05-24 08:37:00,
2013-05-24 02:42:00,40.5,28.0,30.93,South,180,1.0,4.0,61,0.00,,,0.00,meteohub,2013-05-24 08:42:00,
2013-05-24 02:47:00,40.3,27.9,30.93,East,90,1.0,4.0,61,0.00,,,0.00,meteohub,2013-05-24 08:47:00,
2013-05-24 02:52:00,39.9,27.5,30.93,SE,135,3.0,4.0,61,0.00,,,0.00,meteohub,2013-05-24 08:52:00,
2013-05-24 02:57:00,39.7,27.3,30.93,SE,135,5.0,5.0,61,0.00,,,0.00,meteohub,2013-05-24 08:57:00,
2013-05-24 03:02:00,40.1,28.0,30.93,South,180,4.0,5.0,62,0.00,,,0.00,meteohub,2013-05-24 09:02:00,
2013-05-24 03:07:00,41.0,28.9,30.93,East,90,5.0,6.0,62,0.00,,,0.00,meteohub,2013-05-24 09:07:00,
2013-05-24 03:12:00,41.5,29.5,30.94,South,180,3.0,6.0,62,0.00,,,0.00,meteohub,2013-05-24 09:12:00,
2013-05-24 03:17:00,41.4,28.9,30.94,South,180,3.0,6.0,61,0.00,,,0.00,meteohub,2013-05-24 09:17:00,
2013-05-24 03:22:00,41.2,28.8,30.94,SE,135,2.0,5.0,61,0.00,,,0.00,meteohub,2013-05-24 09:22:00,
2013-05-24 03:27:00,40.3,28.2,30.94,East,90,4.0,5.0,62,0.00,,,0.00,meteohub,2013-05-24 09:27:00,
2013-05-24 03:32:00,39.6,28.0,30.94,NE,45,3.0,4.0,63,0.00,,,0.00,meteohub,2013-05-24 09:32:00,
2013-05-24 03:37:00,39.2,27.7,30.94,East,90,3.0,4.0,63,0.00,,,0.00,meteohub,2013-05-24 09:37:00,
2013-05-24 03:42:00,38.7,27.9,30.95,South,180,3.0,4.0,65,0.00,,,0.00,meteohub,2013-05-24 09:42:00,
2013-05-24 03:47:00,38.3,27.1,30.94,South,180,3.0,4.0,64,0.00,,,0.00,meteohub,2013-05-24 09:47:00,
2013-05-24 03:52:00,37.8,26.6,30.94,South,180,2.0,4.0,64,0.00,,,0.00,meteohub,2013-05-24 09:52:00,
2013-05-24 03:57:00,37.4,26.4,30.94,SSW,203,2.0,4.0,64,0.00,,,0.00,meteohub,2013-05-24 09:57:00,
2013-05-24 04:02:00,37.6,27.0,30.94,SE,135,3.0,4.0,65,0.00,,,0.00,meteohub,2013-05-24 10:02:00,
2013-05-24 04:07:00,37.6,27.0,30.94,SE,135,3.0,4.0,65,0.00,,,0.00,meteohub,2013-05-24 10:07:00,
2013-05-24 04:12:00,37.8,26.6,30.94,SE,135,4.0,4.0,64,0.00,,,0.00,meteohub,2013-05-24 10:12:00,
2013-05-24 04:17:00,37.8,26.6,30.94,South,180,4.0,5.0,64,0.00,,,0.00,meteohub,2013-05-24 10:17:00,
2013-05-24 04:22:00,38.3,27.5,30.94,South,180,3.0,6.0,65,0.00,,,0.00,meteohub,2013-05-24 10:22:00,
2013-05-24 04:27:00,38.7,27.9,30.95,North,0,2.0,6.0,65,0.00,,,0.00,meteohub,2013-05-24 10:27:00,
2013-05-24 04:32:00,38.1,27.3,30.94,East,90,2.0,6.0,65,0.00,,,0.00,meteohub,2013-05-24 10:32:00,
2013-05-24 04:37:00,37.4,26.8,30.95,NE,45,3.0,4.0,65,0.00,,,0.00,meteohub,2013-05-24 10:37:00,
2013-05-24 04:42:00,36.9,24.6,30.95,SE,135,2.0,3.0,61,0.00,,,0.00,meteohub,2013-05-24 10:42:00,
2013-05-24 04:47:00,36.7,25.0,30.95,East,90,4.0,4.0,62,0.00,,,0.00,meteohub,2013-05-24 10:47:00,
2013-05-24 04:52:00,36.7,25.3,30.95,East,90,4.0,4.0,63,0.00,,,0.00,meteohub,2013-05-24 10:52:00,
2013-05-24 04:57:00,36.7,25.3,30.95,South,180,2.0,4.0,63,0.00,,,0.00,meteohub,2013-05-24 10:57:00,
2013-05-24 05:02:00,36.3,25.3,30.96,SW,225,2.0,4.0,64,0.00,,,0.00,meteohub,2013-05-24 11:02:00,
2013-05-24 05:07:00,35.6,24.6,30.95,East,90,4.0,4.0,64,0.00,,,0.00,meteohub,2013-05-24 11:07:00,
2013-05-24 05:12:00,35.1,24.1,30.95,East,90,2.0,4.0,64,0.00,,,0.00,meteohub,2013-05-24 11:12:00,
2013-05-24 05:17:00,34.5,23.9,30.96,East,90,4.0,4.0,65,0.00,,,0.00,meteohub,2013-05-24 11:17:00,
2013-05-24 05:22:00,34.5,24.3,30.96,SW,225,2.0,4.0,66,0.00,,,0.00,meteohub,2013-05-24 11:22:00,
2013-05-24 05:27:00,34.3,24.1,30.97,SE,135,4.0,4.0,66,0.00,,,0.00,meteohub,2013-05-24 11:27:00,
2013-05-24 05:32:00,34.5,24.3,30.97,South,180,3.0,4.0,66,0.00,,,0.00,meteohub,2013-05-24 11:32:00,
2013-05-24 05:37:00,34.2,24.1,30.97,SE,135,4.0,4.0,66,0.00,,,0.00,meteohub,2013-05-24 11:37:00,
2013-05-24 05:42:00,34.3,24.4,30.97,SE,135,2.0,4.0,67,0.00,,,0.00,meteohub,2013-05-24 11:42:00,
2013-05-24 05:47:00,34.5,24.6,30.97,East,90,3.0,4.0,67,0.00,,,0.00,meteohub,2013-05-24 11:47:00,
2013-05-24 05:52:00,34.5,24.3,30.97,East,90,4.0,4.0,66,0.00,,,0.00,meteohub,2013-05-24 11:52:00,
2013-05-24 05:57:00,34.5,24.3,30.97,East,90,3.0,4.0,66,0.00,,,0.00,meteohub,2013-05-24 11:57:00,
2013-05-24 06:02:00,34.3,24.1,30.98,East,90,3.0,4.0,66,0.00,,,0.00,meteohub,2013-05-24 12:02:00,
2013-05-24 06:07:00,34.3,24.1,30.98,East,90,3.0,4.0,66,0.00,,,0.00,meteohub,2013-05-24 12:07:00,
2013-05-24 06:12:00,34.3,24.4,30.98,NE,45,2.0,4.0,67,0.00,,,0.00,meteohub,2013-05-24 12:12:00,
2013-05-24 06:17:00,34.3,24.8,30.98,East,90,4.0,4.0,68,0.00,,,0.00,meteohub,2013-05-24 12:17:00,
2013-05-24 06:22:00,34.5,25.3,30.98,East,90,2.0,4.0,69,0.00,,,0.00,meteohub,2013-05-24 12:22:00,
2013-05-24 06:27:00,34.5,25.0,30.98,East,90,2.0,4.0,68,0.00,,,0.00,meteohub,2013-05-24 12:27:00,
2013-05-24 06:32:00,34.0,24.6,30.98,East,90,2.0,4.0,68,0.00,,,0.00,meteohub,2013-05-24 12:32:00,
2013-05-24 06:37:00,34.0,24.8,30.98,East,90,1.0,4.0,69,0.00,,,0.00,meteohub,2013-05-24 12:37:00,
2013-05-24 06:42:00,33.8,24.8,30.98,NE,45,2.0,4.0,69,0.00,,,0.00,meteohub,2013-05-24 12:42:00,
2013-05-24 06:47:00,33.8,24.8,30.99,East,90,3.0,4.0,69,0.00,,,0.00,meteohub,2013-05-24 12:47:00,
2013-05-24 06:52:00,34.2,25.0,30.99,East,90,2.0,4.0,69,0.00,,,0.00,meteohub,2013-05-24 12:52:00,
2013-05-24 06:57:00,34.0,24.6,30.98,East,90,2.0,4.0,68,0.00,,,0.00,meteohub,2013-05-24 12:57:00,
2013-05-24 07:02:00,34.2,24.6,30.99,East,90,3.0,4.0,68,0.00,,,0.00,meteohub,2013-05-24 13:02:00,
2013-05-24 07:07:00,34.0,24.6,30.99,NE,45,3.0,4.0,68,0.00,,,0.00,meteohub,2013-05-24 13:07:00,
2013-05-24 07:12:00,34.2,25.0,30.99,East,90,4.0,4.0,69,0.00,,,0.00,meteohub,2013-05-24 13:12:00,
2013-05-24 07:17:00,34.3,25.2,30.99,East,90,2.0,4.0,69,0.00,,,0.00,meteohub,2013-05-24 13:17:00,
2013-05-24 07:22:00,34.9,25.7,30.99,SE,135,2.0,4.0,69,0.00,,,0.00,meteohub,2013-05-24 13:22:00,
2013-05-24 07:27:00,35.4,25.9,30.99,East,90,2.0,4.0,68,0.00,,,0.00,meteohub,2013-05-24 13:27:00,
2013-05-24 07:32:00,35.6,25.7,30.99,East,90,4.0,4.0,67,0.00,,,0.00,meteohub,2013-05-24 13:32:00,
2013-05-24 07:37:00,36.1,26.2,30.99,South,180,2.0,4.0,67,0.00,,,0.00,meteohub,2013-05-24 13:37:00,
2013-05-24 07:42:00,37.2,27.0,30.99,SE,135,4.0,4.0,66,0.00,,,0.00,meteohub,2013-05-24 13:42:00,
2013-05-24 07:47:00,39.0,29.7,30.99,SE,135,4.0,6.0,69,0.00,,,0.00,meteohub,2013-05-24 13:47:00,
2013-05-24 07:52:00,41.5,31.1,30.99,South,180,2.0,6.0,66,0.00,,,0.00,meteohub,2013-05-24 13:52:00,
2013-05-24 07:57:00,43.2,31.5,30.98,West,270,4.0,5.0,63,0.00,,,0.00,meteohub,2013-05-24 13:57:00,
2013-05-24 08:02:00,44.2,32.0,30.99,South,180,4.0,7.0,62,0.00,,,0.00,meteohub,2013-05-24 14:02:00,
2013-05-24 08:07:00,46.2,32.7,30.99,West,270,4.0,7.0,59,0.00,,,0.00,meteohub,2013-05-24 14:07:00,
2013-05-24 08:12:00,47.3,32.4,30.99,South,180,5.0,7.0,56,0.00,,,0.00,meteohub,2013-05-24 14:12:00,
2013-05-24 08:17:00,48.0,32.5,30.99,West,270,2.0,6.0,55,0.00,,,0.00,meteohub,2013-05-24 14:17:00,
2013-05-24 08:22:00,48.9,32.5,30.98,South,180,4.0,6.0,53,0.00,,,0.00,meteohub,2013-05-24 14:22:00,
2013-05-24 08:27:00,50.2,33.3,30.98,NE,45,2.0,7.0,52,0.00,,,0.00,meteohub,2013-05-24 14:27:00,
2013-05-24 08:32:00,51.3,33.3,30.98,South,180,4.0,7.0,50,0.00,,,0.00,meteohub,2013-05-24 14:32:00,
2013-05-24 08:37:00,52.2,32.5,30.99,West,270,4.0,6.0,47,0.00,,,0.00,meteohub,2013-05-24 14:37:00,
2013-05-24 08:42:00,52.9,32.2,30.99,SE,135,2.0,6.0,45,0.00,,,0.00,meteohub,2013-05-24 14:42:00,
2013-05-24 08:47:00,53.8,32.4,30.98,South,180,4.0,6.0,44,0.00,,,0.00,meteohub,2013-05-24 14:47:00,
2013-05-24 08:52:00,54.7,30.9,30.98,SE,135,2.0,4.0,40,0.00,,,0.00,meteohub,2013-05-24 14:52:00,
2013-05-24 08:57:00,55.4,32.0,30.99,SW,225,2.0,4.0,41,0.00,,,0.00,meteohub,2013-05-24 14:57:00,
2013-05-24 09:02:00,55.9,32.0,30.98,West,270,3.0,4.0,40,0.00,,,0.00,meteohub,2013-05-24 15:02:00,
2013-05-24 09:07:00,56.5,31.1,30.98,West,270,2.0,4.0,38,0.00,,,0.00,meteohub,2013-05-24 15:07:00,
2013-05-24 09:12:00,57.4,30.6,30.98,West,270,2.0,4.0,36,0.00,,,0.00,meteohub,2013-05-24 15:12:00,
2013-05-24 09:17:00,58.5,30.9,30.98,SE,135,4.0,4.0,35,0.00,,,0.00,meteohub,2013-05-24 15:17:00,
2013-05-24 09:22:00,59.4,28.8,30.98,NE,45,3.0,4.0,31,0.00,,,0.00,meteohub,2013-05-24 15:22:00,
2013-05-24 09:27:00,60.1,27.7,30.98,South,180,7.0,7.0,29,0.00,,,0.00,meteohub,2013-05-24 15:27:00,
2013-05-24 09:32:00,60.6,22.6,30.98,East,90,3.0,8.0,23,0.00,,,0.00,meteohub,2013-05-24 15:32:00,
2013-05-24 09:37:00,61.0,19.6,30.98,North,0,1.0,8.0,20,0.00,,,0.00,meteohub,2013-05-24 15:37:00,
2013-05-24 09:42:00,61.5,20.1,30.98,SW,225,5.0,8.0,20,0.00,,,0.00,meteohub,2013-05-24 15:42:00,
2013-05-24 09:47:00,62.2,20.7,30.98,SSW,203,4.0,5.0,20,0.00,,,0.00,meteohub,2013-05-24 15:47:00,
2013-05-24 09:52:00,62.4,19.6,30.98,NE,45,5.0,6.0,19,0.00,,,0.00,meteohub,2013-05-24 15:52:00,
2013-05-24 09:57:00,62.4,19.6,30.98,SE,135,4.0,6.0,19,0.00,,,0.00,meteohub,2013-05-24 15:57:00,
2013-05-24 10:02:00,62.6,18.5,30.97,SSW,203,7.0,7.0,18,0.00,,,0.00,meteohub,2013-05-24 16:02:00,
2013-05-24 10:07:00,62.6,18.5,30.98,SSW,203,7.0,7.0,18,0.00,,,0.00,meteohub,2013-05-24 16:07:00,
2013-05-24 10:12:00,63.7,19.4,30.97,North,0,3.0,7.0,18,0.00,,,0.00,meteohub,2013-05-24 16:12:00,
2013-05-24 10:17:00,64.4,19.9,30.97,SW,225,4.0,11.0,18,0.00,,,0.00,meteohub,2013-05-24 16:17:00,
2013-05-24 10:22:00,64.8,20.3,30.97,South,180,8.0,11.0,18,0.00,,,0.00,meteohub,2013-05-24 16:22:00,
2013-05-24 10:27:00,64.9,19.0,30.97,South,180,4.0,10.0,17,0.00,,,0.00,meteohub,2013-05-24 16:27:00,
2013-05-24 10:32:00,65.1,20.5,30.97,SW,225,10.0,11.0,18,0.00,,,0.00,meteohub,2013-05-24 16:32:00,
2013-05-24 10:37:00,65.5,19.6,30.97,SE,135,3.0,12.0,17,0.00,,,0.00,meteohub,2013-05-24 16:37:00,
2013-05-24 10:42:00,65.3,19.4,30.97,East,90,7.0,12.0,17,0.00,,,0.00,meteohub,2013-05-24 16:42:00,
2013-05-24 10:47:00,65.5,19.6,30.97,SE,135,9.0,10.0,17,0.00,,,0.00,meteohub,2013-05-24 16:47:00,
2013-05-24 10:52:00,66.0,19.9,30.97,South,180,8.0,9.0,17,0.00,,,0.00,meteohub,2013-05-24 16:52:00,
2013-05-24 10:57:00,66.2,18.7,30.97,South,180,10.0,13.0,16,0.00,,,0.00,meteohub,2013-05-24 16:57:00,
2013-05-24 11:02:00,66.6,19.0,30.97,SW,225,10.0,13.0,16,0.00,,,0.00,meteohub,2013-05-24 17:02:00,
2013-05-24 11:07:00,66.4,18.9,30.97,SW,225,6.0,13.0,16,0.00,,,0.00,meteohub,2013-05-24 17:07:00,
2013-05-24 11:12:00,66.9,19.2,30.97,South,180,4.0,11.0,16,0.00,,,0.00,meteohub,2013-05-24 17:12:00,
2013-05-24 11:17:00,67.6,21.2,30.97,South,180,11.0,11.0,17,0.00,,,0.00,meteohub,2013-05-24 17:17:00,
2013-05-24 11:22:00,67.6,21.2,30.97,SW,225,8.0,12.0,17,0.00,,,0.00,meteohub,2013-05-24 17:22:00,
2013-05-24 11:27:00,67.6,19.8,30.97,South,180,11.0,13.0,16,0.00,,,0.00,meteohub,2013-05-24 17:27:00,
2013-05-24 11:32:00,67.6,19.8,30.97,South,180,11.0,17.0,16,0.00,,,0.00,meteohub,2013-05-24 17:32:00,
2013-05-24 11:37:00,67.6,19.8,30.97,SW,225,13.0,17.0,16,0.00,,,0.00,meteohub,2013-05-24 17:37:00,
2013-05-24 11:42:00,67.8,19.9,30.97,SE,135,9.0,15.0,16,0.00,,,0.00,meteohub,2013-05-24 17:42:00,
2013-05-24 11:47:00,68.0,18.7,30.97,South,180,3.0,13.0,15,0.00,,,0.00,meteohub,2013-05-24 17:47:00,
2013-05-24 11:52:00,68.2,18.7,30.97,SE,135,11.0,15.0,15,0.00,,,0.00,meteohub,2013-05-24 17:52:00,
2013-05-24 11:57:00,68.5,17.4,30.97,SW,225,10.0,21.0,14,0.00,,,0.00,meteohub,2013-05-24 17:57:00,
2013-05-24 12:02:00,68.4,17.2,30.97,West,270,3.0,21.0,14,0.00,,,0.00,meteohub,2013-05-24 18:02:00,
2013-05-24 12:07:00,68.4,17.2,30.97,West,270,3.0,21.0,14,0.00,,,0.00,meteohub,2013-05-24 18:07:00,
2013-05-24 12:12:00,69.3,18.0,30.97,South,180,4.0,15.0,14,0.00,,,0.00,meteohub,2013-05-24 18:12:00,
2013-05-24 12:17:00,69.3,18.0,30.97,SW,225,9.0,10.0,14,0.00,,,0.00,meteohub,2013-05-24 18:17:00,
2013-05-24 12:22:00,68.7,17.6,30.97,South,180,4.0,10.0,14,0.00,,,0.00,meteohub,2013-05-24 18:22:00,
2013-05-24 12:27:00,68.7,17.6,30.97,South,180,9.0,16.0,14,0.00,,,0.00,meteohub,2013-05-24 18:27:00,
2013-05-24 12:32:00,69.3,18.0,30.97,SW,225,4.0,16.0,14,0.00,,,0.00,meteohub,2013-05-24 18:32:00,
2013-05-24 12:37:00,69.1,18.0,30.97,South,180,14.0,15.0,14,0.00,,,0.00,meteohub,2013-05-24 18:37:00,
2013-05-24 12:42:00,68.5,17.4,30.97,South,180,12.0,17.0,14,0.00,,,0.00,meteohub,2013-05-24 18:42:00,
2013-05-24 12:49:00,69.1,18.0,30.97,SSE,158,9.0,17.0,14,0.00,,,0.00,meteohub,2013-05-24 18:49:00,
2013-05-24 12:54:00,69.3,18.0,30.97,SW,225,9.0,17.0,14,0.00,,,0.00,meteohub,2013-05-24 18:54:00,
2013-05-24 12:59:00,69.6,18.3,30.96,SE,135,12.0,16.0,14,0.00,,,0.00,meteohub,2013-05-24 18:59:00,
2013-05-24 13:04:00,69.6,18.3,30.97,SE,135,11.0,15.0,14,0.00,,,0.00,meteohub,2013-05-24 19:04:00,
2013-05-24 13:09:00,70.0,16.9,30.97,West,270,4.0,17.0,13,0.00,,,0.00,meteohub,2013-05-24 19:09:00,
2013-05-24 13:14:00,70.2,17.1,30.97,North,0,8.0,17.0,13,0.00,,,0.00,meteohub,2013-05-24 19:14:00,
2013-05-24 13:19:00,70.7,17.4,30.97,South,180,9.0,17.0,13,0.00,,,0.00,meteohub,2013-05-24 19:19:00,
2013-05-24 13:24:00,71.1,17.8,30.97,SW,225,13.0,14.0,13,0.00,,,0.00,meteohub,2013-05-24 19:24:00,
2013-05-24 13:29:00,70.7,17.4,30.97,NE,45,5.0,14.0,13,0.00,,,0.00,meteohub,2013-05-24 19:29:00,
2013-05-24 13:34:00,70.0,16.9,30.97,SW,225,7.0,14.0,13,0.00,,,0.00,meteohub,2013-05-24 19:34:00,
2013-05-24 13:39:00,70.7,17.4,30.97,SE,135,12.0,14.0,13,0.00,,,0.00,meteohub,2013-05-24 19:39:00,
2013-05-24 13:44:00,70.7,17.4,30.97,South,180,15.0,15.0,13,0.00,,,0.00,meteohub,2013-05-24 19:44:00,
2013-05-24 13:49:00,71.1,17.8,30.97,SW,225,13.0,17.0,13,0.00,,,0.00,meteohub,2013-05-24 19:49:00,
2013-05-24 13:54:00,71.1,17.8,30.97,West,270,8.0,17.0,13,0.00,,,0.00,meteohub,2013-05-24 19:54:00,
2013-05-24 13:59:00,70.9,17.6,30.97,South,180,13.0,17.0,13,0.00,,,0.00,meteohub,2013-05-24 19:59:00,
2013-05-24 14:04:00,70.9,17.6,30.96,NNE,23,11.0,17.0,13,0.00,,,0.00,meteohub,2013-05-24 20:04:00,
2013-05-24 14:09:00,71.8,16.5,30.97,South,180,6.0,13.0,12,0.00,,,0.00,meteohub,2013-05-24 20:09:00,
2013-05-24 14:14:00,71.2,17.8,30.97,South,180,7.0,13.0,13,0.00,,,0.00,meteohub,2013-05-24 20:14:00,
2013-05-24 14:19:00,71.4,18.0,30.97,South,180,9.0,13.0,13,0.00,,,0.00,meteohub,2013-05-24 20:19:00,
2013-05-24 14:24:00,71.6,16.3,30.97,South,180,6.0,15.0,12,0.00,,,0.00,meteohub,2013-05-24 20:24:00,
2013-05-24 14:29:00,71.8,16.5,30.96,West,270,2.0,21.0,12,0.00,,,0.00,meteohub,2013-05-24 20:29:00,
2013-05-24 14:34:00,72.0,16.5,30.96,South,180,11.0,21.0,12,0.00,,,0.00,meteohub,2013-05-24 20:34:00,
2013-05-24 14:39:00,72.1,16.7,30.97,South,180,8.0,11.0,12,0.00,,,0.00,meteohub,2013-05-24 20:39:00,
2013-05-24 14:44:00,72.1,16.7,30.97,South,180,7.0,18.0,12,0.00,,,0.00,meteohub,2013-05-24 20:44:00,
2013-05-24 14:50:00,72.3,16.9,30.97,NW,315,6.0,18.0,12,0.00,,,0.00,meteohub,2013-05-24 20:50:00,
2013-05-24 14:55:00,72.3,16.9,30.96,SW,225,10.0,18.0,12,0.00,,,0.00,meteohub,2013-05-24 20:55:00,
2013-05-24 15:00:00,72.1,16.7,30.97,SW,225,17.0,17.0,12,0.00,,,0.00,meteohub,2013-05-24 21:00:00,
2013-05-24 15:05:00,71.8,16.5,30.97,SW,225,7.0,19.0,12,0.00,,,0.00,meteohub,2013-05-24 21:05:00,
2013-05-24 15:10:00,71.4,18.0,30.97,NW,315,12.0,19.0,13,0.00,,,0.00,meteohub,2013-05-24 21:10:00,
2013-05-24 15:15:00,71.4,18.0,30.96,SW,225,8.0,19.0,13,0.00,,,0.00,meteohub,2013-05-24 21:15:00,
2013-05-24 15:20:00,72.3,16.9,30.96,South,180,13.0,15.0,12,0.00,,,0.00,meteohub,2013-05-24 21:20:00,
2013-05-24 15:25:00,72.1,16.7,30.97,West,270,4.0,14.0,12,0.00,,,0.00,meteohub,2013-05-24 21:25:00,
2013-05-24 15:30:00,72.7,17.1,30.96,South,180,8.0,14.0,12,0.00,,,0.00,meteohub,2013-05-24 21:30:00,
2013-05-24 15:35:00,73.0,17.4,30.96,East,90,4.0,14.0,12,0.00,,,0.00,meteohub,2013-05-24 21:35:00,
2013-05-24 15:40:00,73.0,17.4,30.95,NW,315,7.0,14.0,12,0.00,,,0.00,meteohub,2013-05-24 21:40:00,
2013-05-24 15:45:00,72.7,17.1,30.96,SW,225,11.0,14.0,12,0.00,,,0.00,meteohub,2013-05-24 21:45:00,
2013-05-24 15:50:00,72.5,17.1,30.95,WSW,248,11.0,11.0,12,0.00,,,0.00,meteohub,2013-05-24 21:50:00,
2013-05-24 15:55:00,72.3,16.9,30.95,SE,135,9.0,11.0,12,0.00,,,0.00,meteohub,2013-05-24 21:55:00,
2013-05-24 16:00:00,73.0,17.4,30.95,SE,135,4.0,11.0,12,0.00,,,0.00,meteohub,2013-05-24 22:00:00,
2013-05-24 16:05:00,73.0,17.4,30.95,SE,135,4.0,11.0,12,0.00,,,0.00,meteohub,2013-05-24 22:05:00,
2013-05-24 16:10:00,73.6,23.0,30.95,North,0,8.0,11.0,15,0.00,,,0.00,meteohub,2013-05-24 22:10:00,
2013-05-24 16:15:00,73.4,23.0,30.95,SE,135,6.0,12.0,15,0.00,,,0.00,meteohub,2013-05-24 22:15:00,
2013-05-24 16:20:00,73.2,17.6,30.95,NW,315,5.0,12.0,12,0.00,,,0.00,meteohub,2013-05-24 22:20:00,
2013-05-24 16:25:00,72.7,17.1,30.95,West,270,6.0,12.0,12,0.00,,,0.00,meteohub,2013-05-24 22:25:00,
2013-05-24 16:30:00,72.3,16.9,30.95,NE,45,2.0,8.0,12,0.00,,,0.00,meteohub,2013-05-24 22:30:00,
2013-05-24 16:35:00,72.1,16.7,30.95,NW,315,4.0,8.0,12,0.00,,,0.00,meteohub,2013-05-24 22:35:00,
2013-05-24 16:40:00,72.0,16.5,30.95,SW,225,4.0,8.0,12,0.00,,,0.00,meteohub,2013-05-24 22:40:00,
2013-05-24 16:45:00,71.8,16.5,30.95,SW,225,2.0,8.0,12,0.00,,,0.00,meteohub,2013-05-24 22:45:00,
2013-05-24 16:50:00,71.4,18.0,30.95,SW,225,4.0,8.0,13,0.00,,,0.00,meteohub,2013-05-24 22:50:00,
2013-05-24 16:55:00,71.2,17.8,30.95,SW,225,10.0,13.0,13,0.00,,,0.00,meteohub,2013-05-24 22:55:00,
2013-05-24 17:00:00,70.3,17.2,30.95,East,90,5.0,13.0,13,0.00,,,0.00,meteohub,2013-05-24 23:00:00,
2013-05-24 17:05:00,70.0,16.9,30.95,West,270,3.0,10.0,13,0.00,,,0.00,meteohub,2013-05-24 23:05:00,
2013-05-24 17:10:00,70.0,16.9,30.95,ENE,68,4.0,10.0,13,0.00,,,0.00,meteohub,2013-05-24 23:10:00,
2013-05-24 17:15:00,69.8,16.7,30.95,South,180,4.0,6.0,13,0.00,,,0.00,meteohub,2013-05-24 23:15:00,
2013-05-24 17:20:00,70.2,17.1,30.96,South,180,3.0,5.0,13,0.00,,,0.00,meteohub,2013-05-24 23:20:00,
2013-05-24 17:25:00,70.7,17.4,30.95,NNW,338,4.0,6.0,13,0.00,,,0.00,meteohub,2013-05-24 23:25:00,
2013-05-24 17:30:00,70.7,17.4,30.95,North,0,6.0,10.0,13,0.00,,,0.00,meteohub,2013-05-24 23:30:00,
2013-05-24 17:35:00,70.2,17.1,30.95,North,0,5.0,10.0,13,0.00,,,0.00,meteohub,2013-05-24 23:35:00,
2013-05-24 17:40:00,69.6,18.3,30.95,North,0,4.0,10.0,14,0.00,,,0.00,meteohub,2013-05-24 23:40:00,
2013-05-24 17:45:00,70.0,16.9,30.95,NW,315,5.0,8.0,13,0.00,,,0.00,meteohub,2013-05-24 23:45:00,
2013-05-24 17:50:00,70.0,16.9,30.95,NW,315,6.0,8.0,13,0.00,,,0.00,meteohub,2013-05-24 23:50:00,
2013-05-24 17:55:00,69.1,18.0,30.95,North,0,8.0,8.0,14,0.00,,,0.00,meteohub,2013-05-24 23:55:00,
2013-05-24 18:01:00,68.5,17.4,30.95,North,0,5.0,9.0,14,0.00,,,0.00,meteohub,2013-05-25 00:01:00,
2013-05-24 18:06:00,68.5,17.4,30.96,North,0,5.0,9.0,14,0.00,,,0.00,meteohub,2013-05-25 00:06:00,
2013-05-24 18:11:00,67.5,18.1,30.96,NW,315,5.0,9.0,15,0.00,,,0.00,meteohub,2013-05-25 00:11:00,
2013-05-24 18:16:00,67.5,18.1,30.96,SW,225,4.0,8.0,15,0.00,,,0.00,meteohub,2013-05-25 00:16:00,
2013-05-24 18:21:00,67.6,19.8,30.96,West,270,3.0,8.0,16,0.00,,,0.00,meteohub,2013-05-25 00:21:00,
2013-05-24 18:26:00,67.5,18.1,30.96,North,0,7.0,8.0,15,0.00,,,0.00,meteohub,2013-05-25 00:26:00,